| time (UTC) | temp F | wind direction | speed MPH | gust MPH | rain 1hr in | rain 24hr in | rain mn in | humidity % | barometer mb |
| 20260507144514 | 0 | 0.0 | 0.0 | 0.00 | 0.16 | 0.11 | 1012.3 | ||
| 20260507143018 | 0 | 0.0 | 0.0 | 0.00 | 0.16 | 0.11 | 1012.3 | ||
| 20260507141504 | 0 | 0.0 | 0.0 | 0.00 | 0.16 | 0.11 | 1012.3 | ||
| 20260507140101 | 0 | 0.0 | 0.0 | 0.00 | 0.16 | 0.11 | 1012.3 | ||
| 20260507134602 | 0 | 0.0 | 0.0 | 0.00 | 0.16 | 0.11 | 1012.3 | ||
| 20260507133052 | 0 | 0.0 | 0.0 | 0.00 | 0.16 | 0.11 | 1012.4 | ||
| 20260507131548 | 0 | 0.0 | 0.0 | 0.00 | 0.16 | 0.11 | 1012.3 | ||
| 20260507130043 | 0 | 0.0 | 0.0 | 0.00 | 0.16 | 0.11 | 1012.1 | ||
| 20260507124539 | 0 | 0.0 | 0.0 | 0.00 | 0.16 | 0.11 | 1012.1 | ||
| 20260507123040 | 0 | 0.0 | 0.0 | 0.00 | 0.16 | 0.11 | 1011.9 | ||
| 20260507121530 | 0 | 0.0 | 0.0 | 0.00 | 0.16 | 0.11 | 1012.1 | ||
| 20260507120039 | 0 | 0.0 | 0.0 | 0.00 | 0.16 | 0.11 | 1011.9 | ||
| 20260507114520 | 0 | 0.0 | 0.0 | 0.00 | 0.16 | 0.11 | 1011.9 | ||
| 20260507113034 | 0 | 0.0 | 0.0 | 0.00 | 0.16 | 0.11 | 1011.8 | ||
| 20260507111512 | 0 | 0.0 | 0.0 | 0.00 | 0.16 | 0.11 | 1011.7 | ||
| 20260507110011 | 0 | 191 | 0.0 | 0.0 | 0.00 | 0.16 | 0.11 | 1011.5 | |
| 20260507104507 | 46 | 194 | 0.0 | 0.0 | 0.00 | 0.16 | 0.11 | 92 | 1011.5 |
| 20260507103008 | 46 | 194 | 0.0 | 0.0 | 0.00 | 0.16 | 0.11 | 92 | 1011.0 |
| 20260507101507 | 45 | 194 | 0.0 | 2.0 | 0.00 | 0.16 | 0.11 | 92 | 1010.8 |
| 20260507100004 | 45 | 194 | 0.0 | 0.0 | 0.00 | 0.16 | 0.11 | 93 | 1010.7 |
| 20260507094504 | 45 | 300 | 0.0 | 1.0 | 0.01 | 0.16 | 0.11 | 93 | 1010.4 |
| 20260507093002 | 45 | 299 | 0.0 | 0.0 | 0.01 | 0.16 | 0.11 | 92 | 1010.5 |
| 20260507091501 | 45 | 299 | 0.0 | 0.0 | 0.01 | 0.16 | 0.11 | 92 | 1010.3 |
| 20260507090100 | 46 | 299 | 0.0 | 1.0 | 0.01 | 0.16 | 0.11 | 92 | 1010.4 |
| 20260507084603 | 46 | 123 | 0.0 | 1.0 | 0.00 | 0.15 | 0.10 | 92 | 1010.5 |
| 20260507083058 | 46 | 125 | 0.0 | 0.0 | 0.00 | 0.15 | 0.10 | 92 | 1010.5 |
| 20260507081557 | 46 | 126 | 0.0 | 0.0 | 0.00 | 0.15 | 0.10 | 92 | 1010.4 |
| 20260507080056 | 47 | 126 | 0.0 | 1.0 | 0.01 | 0.15 | 0.10 | 92 | 1010.6 |
| 20260507074554 | 47 | 130 | 0.0 | 1.0 | 0.02 | 0.15 | 0.10 | 92 | 1010.6 |
| 20260507073128 | 47 | 130 | 0.0 | 1.0 | 0.04 | 0.15 | 0.10 | 93 | 1010.8 |
| 20260507071553 | 47 | 130 | 0.0 | 0.0 | 0.06 | 0.15 | 0.10 | 92 | 1010.9 |
| 20260507070053 | 47 | 130 | 0.0 | 0.0 | 0.06 | 0.14 | 0.09 | 91 | 1010.9 |
| 20260507064608 | 48 | 130 | 0.0 | 1.0 | 0.06 | 0.13 | 0.08 | 91 | 1010.7 |
| 20260507063057 | 48 | 316 | 0.0 | 1.0 | 0.05 | 0.11 | 0.06 | 90 | 1010.4 |
| 20260507061547 | 49 | 118 | 0.0 | 2.0 | 0.04 | 0.09 | 0.04 | 91 | 1010.7 |
| 20260507060051 | 49 | 133 | 0.0 | 0.0 | 0.03 | 0.08 | 0.03 | 90 | 1010.5 |
| 20260507054542 | 49 | 131 | 0.0 | 1.0 | 0.02 | 0.07 | 0.02 | 89 | 1010.2 |
| 20260507053039 | 50 | 134 | 0.0 | 1.0 | 0.01 | 0.06 | 0.01 | 87 | 1009.8 |
| 20260507051538 | 50 | 133 | 0.0 | 1.0 | 0.00 | 0.05 | 0.00 | 87 | 1009.7 |
| 20260507050037 | 51 | 143 | 0.0 | 1.0 | 0.00 | 0.05 | 0.00 | 87 | 1009.9 |
| 20260507044535 | 51 | 122 | 0.0 | 1.0 | 0.00 | 0.05 | 0.00 | 87 | 1010.0 |
| 20260507043034 | 51 | 124 | 0.0 | 2.0 | 0.00 | 0.05 | 0.00 | 87 | 1010.1 |
| 20260507041542 | 51 | 124 | 0.0 | 1.0 | 0.00 | 0.05 | 0.00 | 87 | 1010.1 |
| 20260507040033 | 51 | 125 | 0.0 | 3.0 | 0.00 | 0.05 | 0.00 | 86 | 1010.0 |
| 20260507034540 | 52 | 121 | 0.0 | 1.0 | 0.00 | 0.05 | 0.05 | 86 | 1009.8 |
| 20260507033028 | 52 | 130 | 0.0 | 1.0 | 0.00 | 0.05 | 0.05 | 87 | 1009.8 |
| 20260507031527 | 52 | 121 | 0.0 | 1.0 | 0.00 | 0.05 | 0.05 | 87 | 1009.7 |
| 20260507030024 | 52 | 136 | 0.0 | 1.0 | 0.00 | 0.05 | 0.05 | 87 | 1009.8 |
| 20260507024523 | 53 | 130 | 0.0 | 2.0 | 0.00 | 0.05 | 0.05 | 88 | 1009.8 |
| 20260507023021 | 54 | 146 | 0.0 | 2.0 | 0.00 | 0.05 | 0.05 | 87 | 1009.9 |
| 20260507021519 | 54 | 129 | 0.0 | 2.0 | 0.00 | 0.05 | 0.05 | 87 | 1010.2 |
| 20260507020018 | 55 | 122 | 0.0 | 3.0 | 0.00 | 0.05 | 0.05 | 89 | 1010.2 |
| 20260507014519 | 56 | 128 | 0.0 | 1.0 | 0.00 | 0.05 | 0.05 | 90 | 1009.9 |
| 20260507013014 | 56 | 117 | 0.0 | 1.0 | 0.01 | 0.05 | 0.05 | 89 | 1009.6 |
| 20260507011511 | 57 | 120 | 0.0 | 1.0 | 0.01 | 0.05 | 0.05 | 91 | 1009.4 |
| 20260507010025 | 57 | 123 | 0.0 | 2.0 | 0.01 | 0.05 | 0.05 | 90 | 1009.2 |
| 20260507004505 | 58 | 127 | 0.0 | 4.0 | 0.01 | 0.05 | 0.05 | 90 | 1008.9 |
| 20260507003002 | 60 | 148 | 0.0 | 0.0 | 0.00 | 0.04 | 0.04 | 94 | 1008.2 |
| 20260507001502 | 60 | 148 | 0.0 | 0.0 | 0.00 | 0.04 | 0.04 | 94 | 1008.0 |
| 20260507000002 | 60 | 147 | 0.0 | 0.0 | 0.00 | 0.04 | 0.04 | 94 | 1008.1 |
| 20260506234501 | 60 | 148 | 0.0 | 1.0 | 0.00 | 0.04 | 0.04 | 94 | 1008.0 |
| 20260506233109 | 61 | 148 | 0.0 | 0.0 | 0.00 | 0.04 | 0.04 | 93 | 1007.7 |
| 20260506231600 | 61 | 148 | 0.0 | 1.0 | 0.00 | 0.04 | 0.04 | 94 | 1007.8 |
| 20260506230100 | 61 | 149 | 0.0 | 1.0 | 0.00 | 0.04 | 0.04 | 94 | 1007.8 |
| 20260506224613 | 61 | 129 | 0.0 | 1.0 | 0.00 | 0.04 | 0.04 | 94 | 1007.8 |
| 20260506223102 | 61 | 148 | 0.0 | 3.0 | 0.00 | 0.04 | 0.04 | 93 | 1007.7 |
| 20260506221559 | 61 | 151 | 0.0 | 2.0 | 0.00 | 0.04 | 0.04 | 93 | 1007.6 |
| 20260506220109 | 61 | 157 | 0.0 | 1.0 | 0.00 | 0.04 | 0.04 | 93 | 1007.4 |
| 20260506214557 | 60 | 143 | 0.0 | 2.0 | 0.00 | 0.04 | 0.04 | 93 | 1007.2 |
| 20260506213056 | 60 | 148 | 0.0 | 1.0 | 0.00 | 0.04 | 0.04 | 93 | 1007.3 |
| 20260506211558 | 60 | 143 | 0.0 | 2.0 | 0.00 | 0.04 | 0.04 | 93 | 1007.1 |
| 20260506210055 | 60 | 132 | 0.0 | 3.0 | 0.00 | 0.04 | 0.04 | 93 | 1007.1 |
| 20260506204555 | 60 | 134 | 0.0 | 2.0 | 0.00 | 0.04 | 0.04 | 93 | 1006.8 |
| 20260506203100 | 60 | 144 | 0.0 | 3.0 | 0.00 | 0.04 | 0.04 | 93 | 1006.8 |
| 20260506201554 | 60 | 172 | 0.0 | 4.0 | 0.01 | 0.04 | 0.04 | 93 | 1006.8 |
| 20260506200052 | 60 | 157 | 0.0 | 5.0 | 0.01 | 0.04 | 0.04 | 93 | 1006.9 |
| 20260506194553 | 60 | 160 | 0.0 | 2.0 | 0.02 | 0.04 | 0.04 | 94 | 1007.0 |
| 20260506193052 | 60 | 146 | 0.0 | 3.0 | 0.03 | 0.04 | 0.04 | 93 | 1007.5 |
| 20260506191548 | 60 | 146 | 0.0 | 4.0 | 0.02 | 0.03 | 0.03 | 93 | 1007.6 |
| 20260506190046 | 60 | 146 | 0.0 | 2.0 | 0.02 | 0.03 | 0.03 | 93 | 1007.6 |
| 20260506184545 | 60 | 153 | 0.0 | 2.0 | 0.01 | 0.02 | 0.02 | 92 | 1007.7 |
| 20260506183044 | 60 | 139 | 0.0 | 3.0 | 0.00 | 0.01 | 0.01 | 92 | 1007.8 |
| 20260506181558 | 61 | 133 | 2.0 | 6.0 | 0.00 | 0.01 | 0.01 | 91 | 1007.9 |
| 20260506180043 | 61 | 194 | 1.0 | 6.0 | 0.01 | 0.01 | 0.01 | 91 | 1007.9 |
| 20260506174541 | 61 | 194 | 1.0 | 8.0 | 0.01 | 0.01 | 0.01 | 91 | 1008.1 |
| 20260506173059 | 61 | 194 | 0.0 | 5.0 | 0.01 | 0.01 | 0.01 | 91 | 1008.0 |
| 20260506171547 | 61 | 194 | 1.0 | 6.0 | 0.01 | 0.01 | 0.01 | 91 | 1008.0 |
| 20260506170039 | 61 | 148 | 1.0 | 3.0 | 0.00 | 0.00 | 0.00 | 91 | 1008.0 |
| 20260506164537 | 61 | 141 | 2.0 | 5.0 | 0.00 | 0.00 | 0.00 | 90 | 1008.1 |
| 20260506163035 | 61 | 143 | 1.0 | 4.0 | 0.00 | 0.00 | 0.00 | 90 | 1008.4 |
| 20260506161529 | 62 | 131 | 1.0 | 4.0 | 0.00 | 0.00 | 0.00 | 88 | 1008.9 |
| 20260506160036 | 63 | 194 | 0.0 | 4.0 | 0.00 | 0.00 | 0.00 | 87 | 1009.0 |
| 20260506154525 | 63 | 194 | 0.0 | 3.0 | 0.00 | 0.00 | 0.00 | 86 | 1009.2 |
| 20260506153024 | 64 | 194 | 1.0 | 3.0 | 0.00 | 0.00 | 0.00 | 84 | 1009.0 |
| 20260506151523 | 64 | 194 | 2.0 | 5.0 | 0.00 | 0.00 | 0.00 | 79 | 1009.1 |
| 20260506150024 | 64 | 194 | 0.0 | 3.0 | 0.00 | 0.00 | 0.00 | 78 | 1009.4 |